Forside
METAR-TAF:

METAR-TAF

Lufthavne :

Rusk_County_Airport

Ladysmith, Wisconsin, USA

Breddekreds: 45-29-48N, længdekreds: 091-00-01W, højde: 377 m

Aktuelle vejr

Denne rapport blev lavet for 28 minutter siden, kl. 06:35 UTC
Vind 3 kt fra sydsydøst
Temperatur 0°C
Fugtighed 86%
Tryk 1010 hPa
Sigt: 16.1 km

METAR: KRCX 290635Z AUTO 16003KT 10SM 00/M02 A2983 RMK AO2 T10051020

Tid: 01:03 (07:03 UTC)


TAF: fraværende

Vejrobservationer og prognoser fra mere end 4000 lufthavne (METAR og TAF).

De gule og røde prikker repræsenterer de meteorologiske stationer.

Flyt musen over at se navnet på stationen.

Så klik over at se vejr observationer og prognoser.

At skifte det kort: Klik på de grønne knapper med et sort kors for at zoome ind; på den grønne knap med en bindestreg for at zoome ud; eller på de grønne pile for tilstødende kort.


METAR-TAF: